TimePDT,TemperatureF,Dew PointF,Humidity,Sea Level PressureIn,VisibilityMPH,Wind Direction,Wind SpeedMPH,Gust SpeedMPH,PrecipitationIn,Events,Conditions,WindDirDegrees,DateUTC
12:56 AM,52.0,27.0,38,30.03,10.0,Calm,Calm,-,N/A,,Clear,0,2012-10-15 07:56:00
1:56 AM,48.0,27.0,44,30.04,10.0,SSE,3.5,-,N/A,,Clear,150,2012-10-15 08:56:00
2:56 AM,46.0,26.1,46,30.03,10.0,South,5.8,-,N/A,,Clear,180,2012-10-15 09:56:00
3:56 AM,44.1,25.0,47,30.03,10.0,South,3.5,-,N/A,,Clear,170,2012-10-15 10:56:00
4:56 AM,48.0,27.0,44,30.04,10.0,Calm,Calm,-,N/A,,Clear,0,2012-10-15 11:56:00
5:56 AM,48.9,27.0,43,30.05,10.0,SSE,6.9,-,N/A,,Clear,160,2012-10-15 12:56:00
6:56 AM,48.9,28.0,44,30.08,10.0,South,4.6,-,N/A,,Mostly Cloudy,170,2012-10-15 13:56:00
7:56 AM,52.0,28.9,41,30.10,10.0,Calm,Calm,-,N/A,,Overcast,0,2012-10-15 14:56:00
8:56 AM,62.1,28.9,29,30.08,10.0,North,3.5,-,N/A,,Clear,10,2012-10-15 15:56:00
9:56 AM,68.0,28.9,23,30.08,10.0,West,10.4,-,N/A,,Mostly Cloudy,260,2012-10-15 16:56:00
10:56 AM,68.0,28.9,23,30.09,10.0,West,8.1,-,N/A,,Clear,280,2012-10-15 17:56:00
11:56 AM,73.0,28.9,20,30.06,10.0,West,9.2,-,N/A,,Scattered Clouds,260,2012-10-15 18:56:00
12:56 PM,73.9,30.0,20,30.04,10.0,WNW,9.2,-,N/A,,Clear,300,2012-10-15 19:56:00
1:56 PM,73.9,32.0,21,30.02,10.0,West,8.1,-,N/A,,Clear,260,2012-10-15 20:56:00
2:56 PM,73.9,33.1,22,30.00,10.0,South,4.6,-,N/A,,Clear,190,2012-10-15 21:56:00
3:56 PM,73.9,34.0,23,29.97,10.0,Variable,3.5,-,N/A,,Clear,0,2012-10-15 22:56:00
4:56 PM,73.9,34.0,23,29.98,10.0,SSW,9.2,-,N/A,,Clear,210,2012-10-15 23:56:00
5:56 PM,70.0,35.1,28,29.98,10.0,SSW,5.8,-,N/A,,Overcast,210,2012-10-16 00:56:00
6:56 PM,64.0,33.1,31,29.98,10.0,South,5.8,-,N/A,,Clear,190,2012-10-16 01:56:00
7:56 PM,57.9,33.1,39,29.99,10.0,SSE,8.1,-,N/A,,Clear,150,2012-10-16 02:56:00
8:56 PM,60.1,30.9,33,29.96,10.0,South,10.4,-,N/A,,Clear,170,2012-10-16 03:56:00
9:56 PM,59.0,30.9,35,29.95,10.0,South,8.1,-,0.01,,Clear,170,2012-10-16 04:56:00
10:56 PM,60.1,32.0,35,29.94,10.0,South,10.4,-,N/A,,Clear,170,2012-10-16 05:56:00
11:56 PM,61.0,32.0,34,29.92,10.0,South,10.4,-,N/A,,Scattered Clouds,190,2012-10-16 06:56:00